TimeEDT,TemperatureF,Dew PointF,Humidity,Sea Level PressureIn,VisibilityMPH,Wind Direction,Wind SpeedMPH,Gust SpeedMPH,PrecipitationIn,Events,Conditions,WindDirDegrees,DateUTC
12:15 AM,45.0,28.9,53,29.74,10.0,SSW,13.8,21.9,N/A,,Clear,200,2014-04-10 04:15:00
12:35 AM,45.7,28.4,51,29.73,10.0,SSW,15.0,19.6,N/A,,Scattered Clouds,200,2014-04-10 04:35:00
12:54 AM,46.2,28.4,50,29.72,10.0,SSW,16.1,21.9,N/A,,Scattered Clouds,200,2014-04-10 04:54:00
1:15 AM,45.7,28.4,51,29.72,10.0,SSW,13.8,18.4,N/A,,Scattered Clouds,200,2014-04-10 05:15:00
1:35 AM,46.6,28.4,49,29.71,10.0,SSW,15.0,19.6,N/A,,Scattered Clouds,200,2014-04-10 05:35:00
1:54 AM,46.8,28.8,50,29.70,10.0,SSW,16.1,24.2,N/A,,Clear,200,2014-04-10 05:54:00
2:15 AM,47.3,29.3,50,29.69,10.0,SSW,16.1,23.0,N/A,,Scattered Clouds,210,2014-04-10 06:15:00
2:35 AM,47.7,29.3,49,29.68,10.0,SSW,17.3,26.5,N/A,,Scattered Clouds,210,2014-04-10 06:35:00
2:54 AM,47.7,29.7,50,29.68,10.0,SSW,17.3,25.3,N/A,,Clear,210,2014-04-10 06:54:00
3:15 AM,47.5,30.0,51,29.68,10.0,SSW,18.4,25.3,N/A,,Scattered Clouds,210,2014-04-10 07:15:00
3:35 AM,47.8,30.0,50,29.67,10.0,SSW,17.3,26.5,N/A,,Scattered Clouds,210,2014-04-10 07:35:00
3:54 AM,48.0,30.0,50,29.66,10.0,SSW,13.8,26.5,N/A,,Scattered Clouds,210,2014-04-10 07:54:00
4:15 AM,48.0,30.0,50,29.65,10.0,SSW,17.3,25.3,N/A,,Clear,210,2014-04-10 08:15:00
4:35 AM,48.7,30.2,49,29.64,10.0,SSW,16.1,25.3,N/A,,Clear,210,2014-04-10 08:35:00
4:55 AM,48.7,30.7,50,29.64,10.0,SSW,17.3,26.5,N/A,,Clear,210,2014-04-10 08:55:00
5:15 AM,48.7,30.9,50,29.64,10.0,SSW,16.1,24.2,N/A,,Clear,210,2014-04-10 09:15:00
5:34 AM,48.2,31.1,52,29.63,10.0,SSW,13.8,24.2,N/A,,Clear,210,2014-04-10 09:34:00
5:55 AM,48.2,31.3,52,29.62,10.0,SSW,16.1,26.5,N/A,,Clear,210,2014-04-10 09:55:00
6:15 AM,48.6,31.5,52,29.62,10.0,SSW,17.3,26.5,N/A,,Clear,210,2014-04-10 10:15:00
6:34 AM,47.8,31.5,53,29.61,10.0,SSW,18.4,24.2,N/A,,Clear,200,2014-04-10 10:34:00
6:55 AM,48.2,31.6,53,29.60,10.0,SSW,13.8,21.9,N/A,,Clear,210,2014-04-10 10:55:00
7:15 AM,48.4,31.8,53,29.60,10.0,SW,13.8,25.3,N/A,,Mostly Cloudy,220,2014-04-10 11:15:00
7:34 AM,48.2,32.0,54,29.61,10.0,SSW,12.7,-,N/A,,Mostly Cloudy,210,2014-04-10 11:34:00
7:55 AM,48.7,32.0,52,29.62,10.0,SSW,13.8,24.2,N/A,,Mostly Cloudy,210,2014-04-10 11:55:00
8:15 AM,49.1,32.2,52,29.63,10.0,SW,15.0,21.9,N/A,,Mostly Cloudy,220,2014-04-10 12:15:00
8:34 AM,50.0,32.5,51,29.62,10.0,SSW,17.3,23.0,N/A,,Scattered Clouds,210,2014-04-10 12:34:00
8:55 AM,50.5,33.1,51,29.62,10.0,SW,17.3,24.2,N/A,,Clear,220,2014-04-10 12:55:00
9:15 AM,51.6,33.4,50,29.61,10.0,SW,16.1,21.9,N/A,,Scattered Clouds,220,2014-04-10 13:15:00
9:34 AM,52.7,33.8,49,29.61,10.0,SW,15.0,-,N/A,,Scattered Clouds,220,2014-04-10 13:34:00
9:55 AM,54.5,34.9,48,29.61,10.0,SW,13.8,17.3,N/A,,Clear,230,2014-04-10 13:55:00
10:15 AM,54.3,34.7,48,29.60,10.0,SW,13.8,-,N/A,,Clear,230,2014-04-10 14:15:00
10:34 AM,55.6,35.4,47,29.61,10.0,SW,15.0,-,N/A,,Clear,230,2014-04-10 14:34:00
10:55 AM,56.5,35.6,46,29.60,10.0,WSW,17.3,21.9,N/A,,Scattered Clouds,240,2014-04-10 14:55:00
11:15 AM,56.8,35.8,45,29.58,10.0,SW,13.8,17.3,N/A,,Scattered Clouds,220,2014-04-10 15:15:00
11:34 AM,57.2,36.0,45,29.59,10.0,SW,15.0,-,N/A,,Clear,230,2014-04-10 15:34:00
11:55 AM,57.4,36.3,45,29.60,10.0,SW,15.0,23.0,N/A,,Scattered Clouds,230,2014-04-10 15:55:00
12:15 PM,59.9,37.2,43,29.60,10.0,SW,13.8,17.3,N/A,,Scattered Clouds,230,2014-04-10 16:15:00
12:35 PM,57.7,36.7,45,29.62,10.0,WSW,13.8,18.4,N/A,,Scattered Clouds,240,2014-04-10 16:35:00
12:55 PM,54.7,36.0,49,29.63,10.0,WSW,11.5,18.4,N/A,,Overcast,240,2014-04-10 16:55:00
1:14 PM,54.7,36.5,50,29.64,10.0,West,16.1,19.6,N/A,,Overcast,280,2014-04-10 17:14:00
1:35 PM,49.1,39.6,70,29.66,10.0,West,13.8,20.7,N/A,Rain,Rain,280,2014-04-10 17:35:00
1:55 PM,46.8,40.8,80,29.67,10.0,West,12.7,20.7,N/A,Rain,Light Rain,280,2014-04-10 17:55:00
2:14 PM,44.6,41.5,89,29.68,10.0,WNW,8.1,-,N/A,Rain,Rain,290,2014-04-10 18:14:00
2:35 PM,42.8,40.8,93,29.66,1.5,South,10.4,-,N/A,,Overcast,190,2014-04-10 18:35:00
2:55 PM,42.8,41.0,93,29.67,10.0,SSW,6.9,-,N/A,,Overcast,210,2014-04-10 18:55:00
3:14 PM,43.5,41.9,94,29.67,10.0,SSW,9.2,-,N/A,,Overcast,200,2014-04-10 19:14:00
3:35 PM,45.5,42.8,90,29.68,10.0,SSW,13.8,-,N/A,,Mostly Cloudy,210,2014-04-10 19:35:00
3:54 PM,46.4,42.1,85,29.67,10.0,SW,13.8,-,N/A,,Scattered Clouds,220,2014-04-10 19:54:00
4:15 PM,48.0,41.9,79,29.67,10.0,SW,13.8,-,N/A,,Clear,230,2014-04-10 20:15:00
4:35 PM,48.9,41.5,76,29.67,10.0,WSW,10.4,-,N/A,,Clear,240,2014-04-10 20:35:00
4:54 PM,50.0,40.5,70,29.68,10.0,WSW,10.4,16.1,N/A,,Clear,240,2014-04-10 20:54:00
5:15 PM,51.3,39.7,65,29.69,10.0,WSW,11.5,-,N/A,,Clear,240,2014-04-10 21:15:00
5:35 PM,51.8,38.3,60,29.69,10.0,WSW,10.4,17.3,N/A,,Clear,240,2014-04-10 21:35:00
5:54 PM,51.8,36.9,57,29.70,10.0,WSW,12.7,17.3,N/A,,Clear,250,2014-04-10 21:54:00
6:15 PM,52.7,34.9,51,29.71,10.0,SW,12.7,16.1,N/A,,Clear,230,2014-04-10 22:15:00
6:35 PM,52.2,34.5,51,29.72,10.0,WSW,12.7,-,N/A,,Clear,240,2014-04-10 22:35:00
6:54 PM,51.3,32.4,48,29.72,10.0,WSW,11.5,19.6,N/A,,Clear,240,2014-04-10 22:54:00
7:15 PM,52.0,32.0,47,29.73,10.0,WSW,11.5,17.3,N/A,,Clear,240,2014-04-10 23:15:00
7:35 PM,51.4,30.7,45,29.74,10.0,WSW,10.4,-,N/A,,Clear,240,2014-04-10 23:35:00
7:54 PM,49.5,31.1,49,29.74,10.0,SW,9.2,-,N/A,,Clear,230,2014-04-10 23:54:00
8:15 PM,46.9,30.0,52,29.76,10.0,SW,6.9,-,N/A,,Clear,230,2014-04-11 00:15:00
8:34 PM,45.0,28.9,53,29.76,10.0,SW,6.9,-,N/A,,Clear,230,2014-04-11 00:34:00
8:55 PM,44.8,27.9,52,29.77,10.0,WSW,5.8,-,N/A,,Clear,240,2014-04-11 00:55:00
9:15 PM,43.9,27.0,51,29.79,10.0,SW,6.9,-,N/A,,Clear,230,2014-04-11 01:15:00
9:34 PM,42.3,27.0,55,29.80,10.0,SW,6.9,-,N/A,,Clear,230,2014-04-11 01:34:00
9:55 PM,41.0,27.3,58,29.82,10.0,SW,6.9,-,N/A,,Clear,230,2014-04-11 01:55:00
10:15 PM,41.2,26.6,56,29.83,10.0,WSW,6.9,-,N/A,,Clear,240,2014-04-11 02:15:00
10:34 PM,41.5,26.2,55,29.84,10.0,WSW,6.9,-,N/A,,Clear,240,2014-04-11 02:34:00
10:55 PM,40.6,25.9,56,29.85,10.0,WSW,6.9,-,N/A,,Clear,240,2014-04-11 02:55:00
11:15 PM,40.3,25.0,54,29.85,10.0,WSW,4.6,-,N/A,,Clear,250,2014-04-11 03:15:00
11:34 PM,38.3,25.0,59,29.86,10.0,WSW,4.6,-,N/A,,Clear,250,2014-04-11 03:34:00
11:55 PM,35.8,24.8,64,29.86,10.0,Calm,Calm,-,N/A,,Clear,0,2014-04-11 03:55:00